owner,sensor,date,latitude,longitude,sea_surface_height_above_sea_level,qcFlag 
COMPS,ioos:station:USF.COMPS:FHP:1,2019-01-01T00:00:00Z,28.1530,-82.8010,-9.662,1111122 
COMPS,ioos:station:USF.COMPS:FHP:1,2019-01-01T00:06:00Z,28.1530,-82.8010,-9.655,1111122 
COMPS,ioos:station:USF.COMPS:FHP:1,2019-01-01T00:12:00Z,28.1530,-82.8010,-9.659,1111122 
COMPS,ioos:station:USF.COMPS:FHP:1,2019-01-01T00:18:00Z,28.1530,-82.8010,-9.651,1111122 
COMPS,ioos:station:USF.COMPS:FHP:1,2019-01-01T00:24:00Z,28.1530,-82.8010,-9.654,1111122 
COMPS,ioos:station:USF.COMPS:FHP:1,2019-01-01T00:36:00Z,28.1530,-82.8010,-9.646,1111122 
COMPS,ioos:station:USF.COMPS:FHP:1,2019-01-01T00:42:00Z,28.1530,-82.8010,-9.641,1111122 
COMPS,ioos:station:USF.COMPS:FHP:1,2019-01-01T00:48:00Z,28.1530,-82.8010,-9.638,1111122 
COMPS,ioos:station:USF.COMPS:FHP:1,2019-01-01T00:54:00Z,28.1530,-82.8010,-9.635,1111122 
COMPS,ioos:station:USF.COMPS:FHP:1,2019-01-01T01:00:00Z,28.1530,-82.8010,-9.634,1111122 
COMPS,ioos:station:USF.COMPS:FHP:1,2019-01-01T01:06:00Z,28.1530,-82.8010,-9.638,1111122 
COMPS,ioos:station:USF.COMPS:FHP:1,2019-01-01T01:12:00Z,28.1530,-82.8010,-9.623,1111122 
COMPS,ioos:station:USF.COMPS:FHP:1,2019-01-01T01:18:00Z,28.1530,-82.8010,-9.619,1111122 
COMPS,ioos:station:USF.COMPS:FHP:1,2019-01-01T01:24:00Z,28.1530,-82.8010,-9.612,1111122 
COMPS,ioos:station:USF.COMPS:FHP:1,2019-01-01T01:30:00Z,28.1530,-82.8010,-9.609,1111122 
COMPS,ioos:station:USF.COMPS:FHP:1,2019-01-01T01:36:00Z,28.1530,-82.8010,-9.614,1111122 
COMPS,ioos:station:USF.COMPS:FHP:1,2019-01-01T01:42:00Z,28.1530,-82.8010,-9.615,1111122 
COMPS,ioos:station:USF.COMPS:FHP:1,2019-01-01T01:48:00Z,28.1530,-82.8010,-9.608,1111122 
COMPS,ioos:station:USF.COMPS:FHP:1,2019-01-01T01:54:00Z,28.1530,-82.8010,-9.615,1111122 
COMPS,ioos:station:USF.COMPS:FHP:1,2019-01-01T02:00:00Z,28.1530,-82.8010,-9.601,1111122 
COMPS,ioos:station:USF.COMPS:FHP:1,2019-01-01T02:06:00Z,28.1530,-82.8010,-9.612,1111122 
COMPS,ioos:station:USF.COMPS:FHP:1,2019-01-01T02:12:00Z,28.1530,-82.8010,-9.623,1111122 
COMPS,ioos:station:USF.COMPS:FHP:1,2019-01-01T02:18:00Z,28.1530,-82.8010,-9.637,1111122 
COMPS,ioos:station:USF.COMPS:FHP:1,2019-01-01T02:24:00Z,28.1530,-82.8010,-9.648,1111122 
COMPS,ioos:station:USF.COMPS:FHP:1,2019-01-01T02:30:00Z,28.1530,-82.8010,-9.656,1111122 
COMPS,ioos:station:USF.COMPS:FHP:1,2019-01-01T02:36:00Z,28.1530,-82.8010,-9.662,1111122 
COMPS,ioos:station:USF.COMPS:FHP:1,2019-01-01T02:42:00Z,28.1530,-82.8010,-9.675,1111122 
COMPS,ioos:station:USF.COMPS:FHP:1,2019-01-01T02:48:00Z,28.1530,-82.8010,-9.692,1111122 
COMPS,ioos:station:USF.COMPS:FHP:1,2019-01-01T02:54:00Z,28.1530,-82.8010,-9.703,1111122 
COMPS,ioos:station:USF.COMPS:FHP:1,2019-01-01T03:00:00Z,28.1530,-82.8010,-9.717,1111122 
COMPS,ioos:station:USF.COMPS:FHP:1,2019-01-01T03:06:00Z,28.1530,-82.8010,-9.726,1111122 
COMPS,ioos:station:USF.COMPS:FHP:1,2019-01-01T03:12:00Z,28.1530,-82.8010,-9.731,1111122 
COMPS,ioos:station:USF.COMPS:FHP:1,2019-01-01T03:18:00Z,28.1530,-82.8010,-9.747,1111122 
COMPS,ioos:station:USF.COMPS:FHP:1,2019-01-01T03:24:00Z,28.1530,-82.8010,-9.759,1111122 
COMPS,ioos:station:USF.COMPS:FHP:1,2019-01-01T03:30:00Z,28.1530,-82.8010,-9.778,1111122 
COMPS,ioos:station:USF.COMPS:FHP:1,2019-01-01T03:36:00Z,28.1530,-82.8010,-9.792,1111122 
COMPS,ioos:station:USF.COMPS:FHP:1,2019-01-01T03:42:00Z,28.1530,-82.8010,-9.801,1111122 
COMPS,ioos:station:USF.COMPS:FHP:1,2019-01-01T03:48:00Z,28.1530,-82.8010,-9.823,1111122 
COMPS,ioos:station:USF.COMPS:FHP:1,2019-01-01T03:54:00Z,28.1530,-82.8010,-9.839,1111122 
COMPS,ioos:station:USF.COMPS:FHP:1,2019-01-01T04:00:00Z,28.1530,-82.8010,-9.854,1111122 
COMPS,ioos:station:USF.COMPS:FHP:1,2019-01-01T04:06:00Z,28.1530,-82.8010,-9.873,1111122 
COMPS,ioos:station:USF.COMPS:FHP:1,2019-01-01T04:12:00Z,28.1530,-82.8010,-9.889,1111122 
COMPS,ioos:station:USF.COMPS:FHP:1,2019-01-01T04:18:00Z,28.1530,-82.8010,-9.904,1111122 
COMPS,ioos:station:USF.COMPS:FHP:1,2019-01-01T04:24:00Z,28.1530,-82.8010,-9.919,1111122 
COMPS,ioos:station:USF.COMPS:FHP:1,2019-01-01T04:30:00Z,28.1530,-82.8010,-9.938,1111122 
COMPS,ioos:station:USF.COMPS:FHP:1,2019-01-01T04:36:00Z,28.1530,-82.8010,-9.948,1111122 
COMPS,ioos:station:USF.COMPS:FHP:1,2019-01-01T04:42:00Z,28.1530,-82.8010,-9.97,1111122 
COMPS,ioos:station:USF.COMPS:FHP:1,2019-01-01T04:48:00Z,28.1530,-82.8010,-9.985,1111122 
COMPS,ioos:station:USF.COMPS:FHP:1,2019-01-01T13:18:00Z,28.1530,-82.8010,-9.996,1111122 
COMPS,ioos:station:USF.COMPS:FHP:1,2019-01-01T13:24:00Z,28.1530,-82.8010,-9.985,1111122 
COMPS,ioos:station:USF.COMPS:FHP:1,2019-01-01T13:30:00Z,28.1530,-82.8010,-9.973,1111122 
COMPS,ioos:station:USF.COMPS:FHP:1,2019-01-01T13:36:00Z,28.1530,-82.8010,-9.968,1111122 
COMPS,ioos:station:USF.COMPS:FHP:1,2019-01-01T13:42:00Z,28.1530,-82.8010,-9.958,1111122 
COMPS,ioos:station:USF.COMPS:FHP:1,2019-01-01T13:48:00Z,28.1530,-82.8010,-9.948,1111122 
COMPS,ioos:station:USF.COMPS:FHP:1,2019-01-01T13:54:00Z,28.1530,-82.8010,-9.94,1111122 
COMPS,ioos:station:USF.COMPS:FHP:1,2019-01-01T14:00:00Z,28.1530,-82.8010,-9.929,1111122 
COMPS,ioos:station:USF.COMPS:FHP:1,2019-01-01T14:06:00Z,28.1530,-82.8010,-9.92,1111122 
COMPS,ioos:station:USF.COMPS:FHP:1,2019-01-01T14:12:00Z,28.1530,-82.8010,-9.916,1111122 
COMPS,ioos:station:USF.COMPS:FHP:1,2019-01-01T14:18:00Z,28.1530,-82.8010,-9.915,1111122 
COMPS,ioos:station:USF.COMPS:FHP:1,2019-01-01T14:24:00Z,28.1530,-82.8010,-9.909,1111122 
COMPS,ioos:station:USF.COMPS:FHP:1,2019-01-01T14:30:00Z,28.1530,-82.8010,-9.904,1111122 
COMPS,ioos:station:USF.COMPS:FHP:1,2019-01-01T14:36:00Z,28.1530,-82.8010,-9.901,1111122 
COMPS,ioos:station:USF.COMPS:FHP:1,2019-01-01T14:42:00Z,28.1530,-82.8010,-9.891,1111122 
COMPS,ioos:station:USF.COMPS:FHP:1,2019-01-01T14:48:00Z,28.1530,-82.8010,-9.893,1111122 
COMPS,ioos:station:USF.COMPS:FHP:1,2019-01-01T14:54:00Z,28.1530,-82.8010,-9.888,1111122 
COMPS,ioos:station:USF.COMPS:FHP:1,2019-01-01T15:00:00Z,28.1530,-82.8010,-9.891,1111122 
COMPS,ioos:station:USF.COMPS:FHP:1,2019-01-01T15:06:00Z,28.1530,-82.8010,-9.887,1111122 
COMPS,ioos:station:USF.COMPS:FHP:1,2019-01-01T15:12:00Z,28.1530,-82.8010,-9.885,1111122 
COMPS,ioos:station:USF.COMPS:FHP:1,2019-01-01T15:18:00Z,28.1530,-82.8010,-9.879,1111122 
COMPS,ioos:station:USF.COMPS:FHP:1,2019-01-01T15:24:00Z,28.1530,-82.8010,-9.889,1111122 
COMPS,ioos:station:USF.COMPS:FHP:1,2019-01-01T15:30:00Z,28.1530,-82.8010,-9.885,1111122 
COMPS,ioos:station:USF.COMPS:FHP:1,2019-01-01T15:36:00Z,28.1530,-82.8010,-9.89,1111122 
COMPS,ioos:station:USF.COMPS:FHP:1,2019-01-01T15:42:00Z,28.1530,-82.8010,-9.891,1111122 
COMPS,ioos:station:USF.COMPS:FHP:1,2019-01-01T15:48:00Z,28.1530,-82.8010,-9.892,1111122 
COMPS,ioos:station:USF.COMPS:FHP:1,2019-01-01T15:54:00Z,28.1530,-82.8010,-9.899,1111122 
COMPS,ioos:station:USF.COMPS:FHP:1,2019-01-01T16:00:00Z,28.1530,-82.8010,-9.898,1111122 
COMPS,ioos:station:USF.COMPS:FHP:1,2019-01-01T16:06:00Z,28.1530,-82.8010,-9.902,1111122 
COMPS,ioos:station:USF.COMPS:FHP:1,2019-01-01T16:12:00Z,28.1530,-82.8010,-9.901,1111122 
COMPS,ioos:station:USF.COMPS:FHP:1,2019-01-01T16:18:00Z,28.1530,-82.8010,-9.904,1111122 
COMPS,ioos:station:USF.COMPS:FHP:1,2019-01-01T16:24:00Z,28.1530,-82.8010,-9.901,1111122 
COMPS,ioos:station:USF.COMPS:FHP:1,2019-01-01T16:30:00Z,28.1530,-82.8010,-9.91,1111122 
COMPS,ioos:station:USF.COMPS:FHP:1,2019-01-01T16:36:00Z,28.1530,-82.8010,-9.918,1111122 
COMPS,ioos:station:USF.COMPS:FHP:1,2019-01-01T16:42:00Z,28.1530,-82.8010,-9.922,1111122 
COMPS,ioos:station:USF.COMPS:FHP:1,2019-01-01T16:48:00Z,28.1530,-82.8010,-9.932,1111122 
COMPS,ioos:station:USF.COMPS:FHP:1,2019-01-01T16:54:00Z,28.1530,-82.8010,-9.942,1111122 
COMPS,ioos:station:USF.COMPS:FHP:1,2019-01-01T17:00:00Z,28.1530,-82.8010,-9.945,1111122 
COMPS,ioos:station:USF.COMPS:FHP:1,2019-01-01T17:06:00Z,28.1530,-82.8010,-9.948,1111122 
COMPS,ioos:station:USF.COMPS:FHP:1,2019-01-01T17:12:00Z,28.1530,-82.8010,-9.955,1111122 
COMPS,ioos:station:USF.COMPS:FHP:1,2019-01-01T17:18:00Z,28.1530,-82.8010,-9.964,1111122 
COMPS,ioos:station:USF.COMPS:FHP:1,2019-01-01T17:24:00Z,28.1530,-82.8010,-9.968,1111122 
COMPS,ioos:station:USF.COMPS:FHP:1,2019-01-01T17:30:00Z,28.1530,-82.8010,-9.975,1111122 
COMPS,ioos:station:USF.COMPS:FHP:1,2019-01-01T17:36:00Z,28.1530,-82.8010,-9.99,1111122 
COMPS,ioos:station:USF.COMPS:FHP:1,2019-01-01T17:42:00Z,28.1530,-82.8010,-9.992,1111122 
COMPS,ioos:station:USF.COMPS:FHP:1,2019-01-01T21:48:00Z,28.1530,-82.8010,-9.994,1111122 
COMPS,ioos:station:USF.COMPS:FHP:1,2019-01-01T21:54:00Z,28.1530,-82.8010,-9.992,1111122 
COMPS,ioos:station:USF.COMPS:FHP:1,2019-01-01T22:00:00Z,28.1530,-82.8010,-9.975,1111122 
COMPS,ioos:station:USF.COMPS:FHP:1,2019-01-01T22:06:00Z,28.1530,-82.8010,-9.968,1111122 
COMPS,ioos:station:USF.COMPS:FHP:1,2019-01-01T22:12:00Z,28.1530,-82.8010,-9.961,1111122 
COMPS,ioos:station:USF.COMPS:FHP:1,2019-01-01T22:18:00Z,28.1530,-82.8010,-9.948,1111122 
COMPS,ioos:station:USF.COMPS:FHP:1,2019-01-01T22:24:00Z,28.1530,-82.8010,-9.945,1111122 
COMPS,ioos:station:USF.COMPS:FHP:1,2019-01-01T22:30:00Z,28.1530,-82.8010,-9.937,1111122 
COMPS,ioos:station:USF.COMPS:FHP:1,2019-01-01T22:36:00Z,28.1530,-82.8010,-9.928,1111122 
COMPS,ioos:station:USF.COMPS:FHP:1,2019-01-01T22:42:00Z,28.1530,-82.8010,-9.921,1111122 
COMPS,ioos:station:USF.COMPS:FHP:1,2019-01-01T22:48:00Z,28.1530,-82.8010,-9.91,1111122 
COMPS,ioos:station:USF.COMPS:FHP:1,2019-01-01T22:54:00Z,28.1530,-82.8010,-9.9,1111122 
COMPS,ioos:station:USF.COMPS:FHP:1,2019-01-01T23:00:00Z,28.1530,-82.8010,-9.89,1111122 
COMPS,ioos:station:USF.COMPS:FHP:1,2019-01-01T23:06:00Z,28.1530,-82.8010,-9.888,1111122 
COMPS,ioos:station:USF.COMPS:FHP:1,2019-01-01T23:12:00Z,28.1530,-82.8010,-9.88,1111122 
COMPS,ioos:station:USF.COMPS:FHP:1,2019-01-01T23:18:00Z,28.1530,-82.8010,-9.869,1111122 
COMPS,ioos:station:USF.COMPS:FHP:1,2019-01-01T23:24:00Z,28.1530,-82.8010,-9.861,1111122 
COMPS,ioos:station:USF.COMPS:FHP:1,2019-01-01T23:30:00Z,28.1530,-82.8010,-9.846,1111122 
COMPS,ioos:station:USF.COMPS:FHP:1,2019-01-01T23:36:00Z,28.1530,-82.8010,-9.839,1111122 
COMPS,ioos:station:USF.COMPS:FHP:1,2019-01-01T23:42:00Z,28.1530,-82.8010,-9.825,1111122 
COMPS,ioos:station:USF.COMPS:FHP:1,2019-01-01T23:48:00Z,28.1530,-82.8010,-9.817,1111122 
COMPS,ioos:station:USF.COMPS:FHP:1,2019-01-01T23:54:00Z,28.1530,-82.8010,-9.81,1111122 
COMPS,ioos:station:USF.COMPS:FHP:1,2019-01-02T00:00:00Z,28.1530,-82.8010,-9.795,1111122 
COMPS,ioos:station:USF.COMPS:FHP:1,2019-01-02T00:06:00Z,28.1530,-82.8010,-9.79,1111122 
COMPS,ioos:station:USF.COMPS:FHP:1,2019-01-02T00:12:00Z,28.1530,-82.8010,-9.778,1111122 
COMPS,ioos:station:USF.COMPS:FHP:1,2019-01-02T00:18:00Z,28.1530,-82.8010,-9.77,1111122 
COMPS,ioos:station:USF.COMPS:FHP:1,2019-01-02T00:24:00Z,28.1530,-82.8010,-9.762,1111122 
COMPS,ioos:station:USF.COMPS:FHP:1,2019-01-02T00:30:00Z,28.1530,-82.8010,-9.754,1111122 
COMPS,ioos:station:USF.COMPS:FHP:1,2019-01-02T00:36:00Z,28.1530,-82.8010,-9.753,1111122 
COMPS,ioos:station:USF.COMPS:FHP:1,2019-01-02T00:42:00Z,28.1530,-82.8010,-9.747,1111122 
COMPS,ioos:station:USF.COMPS:FHP:1,2019-01-02T00:48:00Z,28.1530,-82.8010,-9.743,1111122 
COMPS,ioos:station:USF.COMPS:FHP:1,2019-01-02T00:54:00Z,28.1530,-82.8010,-9.732,1111122 
COMPS,ioos:station:USF.COMPS:FHP:1,2019-01-02T01:00:00Z,28.1530,-82.8010,-9.727,1111122 
COMPS,ioos:station:USF.COMPS:FHP:1,2019-01-02T01:06:00Z,28.1530,-82.8010,-9.725,1111122 
COMPS,ioos:station:USF.COMPS:FHP:1,2019-01-02T01:12:00Z,28.1530,-82.8010,-9.716,1111122 
COMPS,ioos:station:USF.COMPS:FHP:1,2019-01-02T01:18:00Z,28.1530,-82.8010,-9.716,1111122 
COMPS,ioos:station:USF.COMPS:FHP:1,2019-01-02T01:24:00Z,28.1530,-82.8010,-9.71,1111122 
COMPS,ioos:station:USF.COMPS:FHP:1,2019-01-02T01:30:00Z,28.1530,-82.8010,-9.703,1111122 
COMPS,ioos:station:USF.COMPS:FHP:1,2019-01-02T01:36:00Z,28.1530,-82.8010,-9.7,1111122 
COMPS,ioos:station:USF.COMPS:FHP:1,2019-01-02T01:42:00Z,28.1530,-82.8010,-9.694,1111122 
COMPS,ioos:station:USF.COMPS:FHP:1,2019-01-02T01:48:00Z,28.1530,-82.8010,-9.696,1111122 
COMPS,ioos:station:USF.COMPS:FHP:1,2019-01-02T01:54:00Z,28.1530,-82.8010,-9.695,1111122 
COMPS,ioos:station:USF.COMPS:FHP:1,2019-01-02T02:00:00Z,28.1530,-82.8010,-9.706,1111122 
COMPS,ioos:station:USF.COMPS:FHP:1,2019-01-02T02:06:00Z,28.1530,-82.8010,-9.703,1111122 
COMPS,ioos:station:USF.COMPS:FHP:1,2019-01-02T02:12:00Z,28.1530,-82.8010,-9.71,1111122 
COMPS,ioos:station:USF.COMPS:FHP:1,2019-01-02T02:18:00Z,28.1530,-82.8010,-9.71,1111122 
COMPS,ioos:station:USF.COMPS:FHP:1,2019-01-02T02:24:00Z,28.1530,-82.8010,-9.71,1111122 
COMPS,ioos:station:USF.COMPS:FHP:1,2019-01-02T02:30:00Z,28.1530,-82.8010,-9.713,1111122 
COMPS,ioos:station:USF.COMPS:FHP:1,2019-01-02T02:36:00Z,28.1530,-82.8010,-9.715,1111122 
COMPS,ioos:station:USF.COMPS:FHP:1,2019-01-02T02:42:00Z,28.1530,-82.8010,-9.723,1111122 
COMPS,ioos:station:USF.COMPS:FHP:1,2019-01-02T02:48:00Z,28.1530,-82.8010,-9.727,1111122 
COMPS,ioos:station:USF.COMPS:FHP:1,2019-01-02T02:54:00Z,28.1530,-82.8010,-9.724,1111122 
COMPS,ioos:station:USF.COMPS:FHP:1,2019-01-02T03:00:00Z,28.1530,-82.8010,-9.733,1111122 
COMPS,ioos:station:USF.COMPS:FHP:1,2019-01-02T03:06:00Z,28.1530,-82.8010,-9.736,1111122 
COMPS,ioos:station:USF.COMPS:FHP:1,2019-01-02T03:12:00Z,28.1530,-82.8010,-9.743,1111122 
COMPS,ioos:station:USF.COMPS:FHP:1,2019-01-02T03:18:00Z,28.1530,-82.8010,-9.746,1111122 
COMPS,ioos:station:USF.COMPS:FHP:1,2019-01-02T03:24:00Z,28.1530,-82.8010,-9.758,1111122 
COMPS,ioos:station:USF.COMPS:FHP:1,2019-01-02T03:30:00Z,28.1530,-82.8010,-9.761,1111122 
COMPS,ioos:station:USF.COMPS:FHP:1,2019-01-02T03:42:00Z,28.1530,-82.8010,-9.784,1111122 
COMPS,ioos:station:USF.COMPS:FHP:1,2019-01-02T03:48:00Z,28.1530,-82.8010,-9.8,1111122 
COMPS,ioos:station:USF.COMPS:FHP:1,2019-01-02T03:54:00Z,28.1530,-82.8010,-9.805,1111122 
COMPS,ioos:station:USF.COMPS:FHP:1,2019-01-02T04:00:00Z,28.1530,-82.8010,-9.815,1111122 
COMPS,ioos:station:USF.COMPS:FHP:1,2019-01-02T04:06:00Z,28.1530,-82.8010,-9.82,1111122 
COMPS,ioos:station:USF.COMPS:FHP:1,2019-01-02T04:12:00Z,28.1530,-82.8010,-9.832,1111122 
COMPS,ioos:station:USF.COMPS:FHP:1,2019-01-02T04:18:00Z,28.1530,-82.8010,-9.846,1111122 
COMPS,ioos:station:USF.COMPS:FHP:1,2019-01-02T04:24:00Z,28.1530,-82.8010,-9.861,1111122 
COMPS,ioos:station:USF.COMPS:FHP:1,2019-01-02T04:30:00Z,28.1530,-82.8010,-9.875,1111122 
COMPS,ioos:station:USF.COMPS:FHP:1,2019-01-02T04:36:00Z,28.1530,-82.8010,-9.895,1111122 
COMPS,ioos:station:USF.COMPS:FHP:1,2019-01-02T04:42:00Z,28.1530,-82.8010,-9.912,1111122 
COMPS,ioos:station:USF.COMPS:FHP:1,2019-01-02T04:48:00Z,28.1530,-82.8010,-9.929,1111122 
COMPS,ioos:station:USF.COMPS:FHP:1,2019-01-02T04:54:00Z,28.1530,-82.8010,-9.942,1111122 
COMPS,ioos:station:USF.COMPS:FHP:1,2019-01-02T05:00:00Z,28.1530,-82.8010,-9.954,1111122 
COMPS,ioos:station:USF.COMPS:FHP:1,2019-01-02T05:06:00Z,28.1530,-82.8010,-9.969,1111122 
COMPS,ioos:station:USF.COMPS:FHP:1,2019-01-02T05:12:00Z,28.1530,-82.8010,-9.986,1111122 
COMPS,ioos:station:USF.COMPS:FHP:1,2019-01-02T14:42:00Z,28.1530,-82.8010,-9.986,1111122 
COMPS,ioos:station:USF.COMPS:FHP:1,2019-01-02T14:48:00Z,28.1530,-82.8010,-9.969,1111122 
COMPS,ioos:station:USF.COMPS:FHP:1,2019-01-02T14:54:00Z,28.1530,-82.8010,-9.956,1111122 
COMPS,ioos:station:USF.COMPS:FHP:1,2019-01-02T15:00:00Z,28.1530,-82.8010,-9.945,1111122 
COMPS,ioos:station:USF.COMPS:FHP:1,2019-01-02T15:06:00Z,28.1530,-82.8010,-9.933,1111122 
COMPS,ioos:station:USF.COMPS:FHP:1,2019-01-02T15:12:00Z,28.1530,-82.8010,-9.925,1111122 
COMPS,ioos:station:USF.COMPS:FHP:1,2019-01-02T15:18:00Z,28.1530,-82.8010,-9.924,1111122 
COMPS,ioos:station:USF.COMPS:FHP:1,2019-01-02T15:24:00Z,28.1530,-82.8010,-9.923,1111122 
COMPS,ioos:station:USF.COMPS:FHP:1,2019-01-02T15:30:00Z,28.1530,-82.8010,-9.925,1111122 
COMPS,ioos:station:USF.COMPS:FHP:1,2019-01-02T15:36:00Z,28.1530,-82.8010,-9.928,1111122 
COMPS,ioos:station:USF.COMPS:FHP:1,2019-01-02T15:42:00Z,28.1530,-82.8010,-9.929,1111122 
COMPS,ioos:station:USF.COMPS:FHP:1,2019-01-02T15:48:00Z,28.1530,-82.8010,-9.936,1111122 
COMPS,ioos:station:USF.COMPS:FHP:1,2019-01-02T15:54:00Z,28.1530,-82.8010,-9.929,1111122 
COMPS,ioos:station:USF.COMPS:FHP:1,2019-01-02T16:00:00Z,28.1530,-82.8010,-9.922,1111122 
COMPS,ioos:station:USF.COMPS:FHP:1,2019-01-02T16:06:00Z,28.1530,-82.8010,-9.911,1111122 
COMPS,ioos:station:USF.COMPS:FHP:1,2019-01-02T16:12:00Z,28.1530,-82.8010,-9.901,1111122 
COMPS,ioos:station:USF.COMPS:FHP:1,2019-01-02T16:18:00Z,28.1530,-82.8010,-9.886,1111122 
COMPS,ioos:station:USF.COMPS:FHP:1,2019-01-02T16:24:00Z,28.1530,-82.8010,-9.886,1111122 
COMPS,ioos:station:USF.COMPS:FHP:1,2019-01-02T16:30:00Z,28.1530,-82.8010,-9.888,1111122 
COMPS,ioos:station:USF.COMPS:FHP:1,2019-01-02T16:36:00Z,28.1530,-82.8010,-9.876,1111122 
COMPS,ioos:station:USF.COMPS:FHP:1,2019-01-02T16:42:00Z,28.1530,-82.8010,-9.891,1111122 
COMPS,ioos:station:USF.COMPS:FHP:1,2019-01-02T16:48:00Z,28.1530,-82.8010,-9.893,1111122 
COMPS,ioos:station:USF.COMPS:FHP:1,2019-01-02T16:54:00Z,28.1530,-82.8010,-9.901,1111122 
COMPS,ioos:station:USF.COMPS:FHP:1,2019-01-02T17:00:00Z,28.1530,-82.8010,-9.915,1111122 
COMPS,ioos:station:USF.COMPS:FHP:1,2019-01-02T17:06:00Z,28.1530,-82.8010,-9.924,1111122 
COMPS,ioos:station:USF.COMPS:FHP:1,2019-01-02T17:12:00Z,28.1530,-82.8010,-9.921,1111122 
COMPS,ioos:station:USF.COMPS:FHP:1,2019-01-02T17:18:00Z,28.1530,-82.8010,-9.931,1111122 
COMPS,ioos:station:USF.COMPS:FHP:1,2019-01-02T17:24:00Z,28.1530,-82.8010,-9.922,1111122 
COMPS,ioos:station:USF.COMPS:FHP:1,2019-01-02T17:30:00Z,28.1530,-82.8010,-9.933,1111122 
COMPS,ioos:station:USF.COMPS:FHP:1,2019-01-02T17:36:00Z,28.1530,-82.8010,-9.934,1111122 
COMPS,ioos:station:USF.COMPS:FHP:1,2019-01-02T17:42:00Z,28.1530,-82.8010,-9.944,1111122 
COMPS,ioos:station:USF.COMPS:FHP:1,2019-01-02T17:48:00Z,28.1530,-82.8010,-9.949,1111122 
COMPS,ioos:station:USF.COMPS:FHP:1,2019-01-02T17:54:00Z,28.1530,-82.8010,-9.956,1111122 
COMPS,ioos:station:USF.COMPS:FHP:1,2019-01-02T18:00:00Z,28.1530,-82.8010,-9.96,1111122 
COMPS,ioos:station:USF.COMPS:FHP:1,2019-01-02T18:06:00Z,28.1530,-82.8010,-9.973,1111122 
COMPS,ioos:station:USF.COMPS:FHP:1,2019-01-02T18:12:00Z,28.1530,-82.8010,-9.973,1111122 
COMPS,ioos:station:USF.COMPS:FHP:1,2019-01-02T18:18:00Z,28.1530,-82.8010,-9.987,1111122 
COMPS,ioos:station:USF.COMPS:FHP:1,2019-01-02T18:24:00Z,28.1530,-82.8010,-9.996,1111122 
COMPS,ioos:station:USF.COMPS:FHP:1,2019-01-02T22:36:00Z,28.1530,-82.8010,-9.987,1111122 
COMPS,ioos:station:USF.COMPS:FHP:1,2019-01-02T22:42:00Z,28.1530,-82.8010,-9.98,1111122 
COMPS,ioos:station:USF.COMPS:FHP:1,2019-01-02T22:48:00Z,28.1530,-82.8010,-9.957,1111122 
COMPS,ioos:station:USF.COMPS:FHP:1,2019-01-02T22:54:00Z,28.1530,-82.8010,-9.951,1111122 
COMPS,ioos:station:USF.COMPS:FHP:1,2019-01-02T23:00:00Z,28.1530,-82.8010,-9.94,1111122 
COMPS,ioos:station:USF.COMPS:FHP:1,2019-01-02T23:06:00Z,28.1530,-82.8010,-9.924,1111122 
COMPS,ioos:station:USF.COMPS:FHP:1,2019-01-02T23:12:00Z,28.1530,-82.8010,-9.91,1111122 
COMPS,ioos:station:USF.COMPS:FHP:1,2019-01-02T23:18:00Z,28.1530,-82.8010,-9.897,1111122 
COMPS,ioos:station:USF.COMPS:FHP:1,2019-01-02T23:24:00Z,28.1530,-82.8010,-9.897,1111122 
COMPS,ioos:station:USF.COMPS:FHP:1,2019-01-02T23:30:00Z,28.1530,-82.8010,-9.884,1111122 
COMPS,ioos:station:USF.COMPS:FHP:1,2019-01-02T23:42:00Z,28.1530,-82.8010,-9.866,1111122 
COMPS,ioos:station:USF.COMPS:FHP:1,2019-01-02T23:48:00Z,28.1530,-82.8010,-9.859,1111122 
COMPS,ioos:station:USF.COMPS:FHP:1,2019-01-03T00:00:00Z,28.1530,-82.8010,-9.834,1111122 
COMPS,ioos:station:USF.COMPS:FHP:1,2019-01-03T00:12:00Z,28.1530,-82.8010,-9.805,1111122 
COMPS,ioos:station:USF.COMPS:FHP:1,2019-01-03T00:18:00Z,28.1530,-82.8010,-9.793,1111122 
COMPS,ioos:station:USF.COMPS:FHP:1,2019-01-03T00:24:00Z,28.1530,-82.8010,-9.777,1111122 
COMPS,ioos:station:USF.COMPS:FHP:1,2019-01-03T00:30:00Z,28.1530,-82.8010,-9.769,1111122 
COMPS,ioos:station:USF.COMPS:FHP:1,2019-01-03T00:36:00Z,28.1530,-82.8010,-9.755,1111122 
COMPS,ioos:station:USF.COMPS:FHP:1,2019-01-03T00:42:00Z,28.1530,-82.8010,-9.744,1111122 
COMPS,ioos:station:USF.COMPS:FHP:1,2019-01-03T00:48:00Z,28.1530,-82.8010,-9.73,1111122 
COMPS,ioos:station:USF.COMPS:FHP:1,2019-01-03T00:54:00Z,28.1530,-82.8010,-9.711,1111122 
COMPS,ioos:station:USF.COMPS:FHP:1,2019-01-03T01:00:00Z,28.1530,-82.8010,-9.702,1111122 
COMPS,ioos:station:USF.COMPS:FHP:1,2019-01-03T01:06:00Z,28.1530,-82.8010,-9.682,1111122 
COMPS,ioos:station:USF.COMPS:FHP:1,2019-01-03T01:12:00Z,28.1530,-82.8010,-9.664,1111122 
COMPS,ioos:station:USF.COMPS:FHP:1,2019-01-03T01:24:00Z,28.1530,-82.8010,-9.635,1111122 
COMPS,ioos:station:USF.COMPS:FHP:1,2019-01-03T01:30:00Z,28.1530,-82.8010,-9.631,1111122 
COMPS,ioos:station:USF.COMPS:FHP:1,2019-01-03T01:36:00Z,28.1530,-82.8010,-9.628,1111122 
COMPS,ioos:station:USF.COMPS:FHP:1,2019-01-03T01:42:00Z,28.1530,-82.8010,-9.625,1111122 
COMPS,ioos:station:USF.COMPS:FHP:1,2019-01-03T01:48:00Z,28.1530,-82.8010,-9.628,1111122 
COMPS,ioos:station:USF.COMPS:FHP:1,2019-01-03T01:54:00Z,28.1530,-82.8010,-9.619,1111122 
COMPS,ioos:station:USF.COMPS:FHP:1,2019-01-03T02:00:00Z,28.1530,-82.8010,-9.628,1111122 
COMPS,ioos:station:USF.COMPS:FHP:1,2019-01-03T02:06:00Z,28.1530,-82.8010,-9.607,1111122 
COMPS,ioos:station:USF.COMPS:FHP:1,2019-01-03T02:12:00Z,28.1530,-82.8010,-9.607,1111122 
COMPS,ioos:station:USF.COMPS:FHP:1,2019-01-03T02:18:00Z,28.1530,-82.8010,-9.578,1111122 
COMPS,ioos:station:USF.COMPS:FHP:1,2019-01-03T02:24:00Z,28.1530,-82.8010,-9.598,1111122 
COMPS,ioos:station:USF.COMPS:FHP:1,2019-01-03T02:30:00Z,28.1530,-82.8010,-9.58,1111122 
COMPS,ioos:station:USF.COMPS:FHP:1,2019-01-03T02:36:00Z,28.1530,-82.8010,-9.581,1111122 
COMPS,ioos:station:USF.COMPS:FHP:1,2019-01-03T02:42:00Z,28.1530,-82.8010,-9.588,1111122 
COMPS,ioos:station:USF.COMPS:FHP:1,2019-01-03T02:48:00Z,28.1530,-82.8010,-9.584,1111122 
COMPS,ioos:station:USF.COMPS:FHP:1,2019-01-03T02:54:00Z,28.1530,-82.8010,-9.583,1111122 
COMPS,ioos:station:USF.COMPS:FHP:1,2019-01-03T03:00:00Z,28.1530,-82.8010,-9.586,1111122 
COMPS,ioos:station:USF.COMPS:FHP:1,2019-01-03T03:06:00Z,28.1530,-82.8010,-9.573,1111122 
COMPS,ioos:station:USF.COMPS:FHP:1,2019-01-03T03:12:00Z,28.1530,-82.8010,-9.587,1111122 
COMPS,ioos:station:USF.COMPS:FHP:1,2019-01-03T03:18:00Z,28.1530,-82.8010,-9.599,1111122 
COMPS,ioos:station:USF.COMPS:FHP:1,2019-01-03T03:24:00Z,28.1530,-82.8010,-9.61,1111122 
COMPS,ioos:station:USF.COMPS:FHP:1,2019-01-03T03:30:00Z,28.1530,-82.8010,-9.621,1111122 
COMPS,ioos:station:USF.COMPS:FHP:1,2019-01-03T03:36:00Z,28.1530,-82.8010,-9.607,1111122 
COMPS,ioos:station:USF.COMPS:FHP:1,2019-01-03T03:42:00Z,28.1530,-82.8010,-9.638,1111122 
COMPS,ioos:station:USF.COMPS:FHP:1,2019-01-03T03:48:00Z,28.1530,-82.8010,-9.637,1111122 
COMPS,ioos:station:USF.COMPS:FHP:1,2019-01-03T03:54:00Z,28.1530,-82.8010,-9.651,1111122 
COMPS,ioos:station:USF.COMPS:FHP:1,2019-01-03T04:00:00Z,28.1530,-82.8010,-9.667,1111122 
COMPS,ioos:station:USF.COMPS:FHP:1,2019-01-03T04:06:00Z,28.1530,-82.8010,-9.682,1111122 
COMPS,ioos:station:USF.COMPS:FHP:1,2019-01-03T04:12:00Z,28.1530,-82.8010,-9.686,1111122 
COMPS,ioos:station:USF.COMPS:FHP:1,2019-01-03T04:18:00Z,28.1530,-82.8010,-9.696,1111122 
COMPS,ioos:station:USF.COMPS:FHP:1,2019-01-03T04:24:00Z,28.1530,-82.8010,-9.704,1111122 
COMPS,ioos:station:USF.COMPS:FHP:1,2019-01-03T04:30:00Z,28.1530,-82.8010,-9.722,1111122 
COMPS,ioos:station:USF.COMPS:FHP:1,2019-01-03T04:36:00Z,28.1530,-82.8010,-9.735,1111122 
COMPS,ioos:station:USF.COMPS:FHP:1,2019-01-03T04:42:00Z,28.1530,-82.8010,-9.759,1111122 
COMPS,ioos:station:USF.COMPS:FHP:1,2019-01-03T04:48:00Z,28.1530,-82.8010,-9.774,1111122 
COMPS,ioos:station:USF.COMPS:FHP:1,2019-01-03T04:54:00Z,28.1530,-82.8010,-9.784,1111122 
COMPS,ioos:station:USF.COMPS:FHP:1,2019-01-03T05:00:00Z,28.1530,-82.8010,-9.802,1111122 
COMPS,ioos:station:USF.COMPS:FHP:1,2019-01-03T05:06:00Z,28.1530,-82.8010,-9.806,1111122 
COMPS,ioos:station:USF.COMPS:FHP:1,2019-01-03T05:12:00Z,28.1530,-82.8010,-9.828,1111122 
COMPS,ioos:station:USF.COMPS:FHP:1,2019-01-03T05:18:00Z,28.1530,-82.8010,-9.847,1111122 